Location: Angwan Shehu
(11.2514°N, 7.4613°E)
Time: 02:09:03
(UTC+00:00)

Tiros 1 - Pass Details

Date: 27 April 2021
Orbit: 630 x 664 km, 48.4° (Epoch: 06 May)

Event Time Altitude Azimuth Distance (km) Brightness Sun altitude
Rises 12:54:34 0° 344° (NNW) 2,902 10.6 68.7°
Reaches altitude 10° 12:57:35 10° 4° (N) 1,995 9.8 67.9°
Maximum altitude 13:00:37 17° 45° (NE) 1,576 9.2 67.2°
Drops below altitude 10° 13:03:38 10° 87° (E) 2,000 9.6 66.5°
Sets 13:06:40 0° 107° (ESE) 2,912 10.3 65.7°
